Date String (YYYY-MM-DD hh:mm:ss) UTC,Instrument flags,Ambient pressure (hPa),Sample flow (lpm),Bypass flow (lpm),Sample temperature (°C),Ambient temperature (°C),ASC tube jacket temperature (°C),LED temperature (°C),Box temperature (°C),Sample RH (%),Span deviation,Mass concentration (μg/m³),Mass concentration (μg/m³),Mass concentration (μg/m³)
DateTimeUTC,F1_M11,P_M11,Q1_M11,Q2_M11,T1_M11,T2_M11,T3_M11,T4_M11,T5_M11,U1_M11,ZSPAN_M11,X0_M11,X2_M11,X1_M11
2023-02-22 01:00:00,,0803.8,5.00,0.00,24.6,23.1,00.0,33.4,26.5,12.9,0000.0,0007.59,0002.56,0001.65
2023-02-22 01:01:00,,0803.8,5.00,0.00,24.6,23.1,00.0,33.4,26.5,12.9,0000.0,0008.14,0002.60,0001.68
2023-02-22 01:02:00,,0803.8,5.00,0.00,24.6,23.1,00.0,33.4,26.5,12.7,0000.0,0008.15,0002.57,0001.69
2023-02-22 01:03:00,,0803.8,4.99,0.00,24.6,23.1,00.0,33.4,26.5,12.8,0000.0,0008.11,0002.56,0001.69
2023-02-22 01:04:00,,0803.8,5.00,0.00,24.6,23.1,00.0,33.4,26.5,12.8,0000.0,0008.32,0002.54,0001.69
2023-02-22 01:05:00,,0803.8,5.00,0.00,24.6,23.1,00.0,33.4,26.5,12.8,0000.0,0007.91,0002.46,0001.67
2023-02-22 01:06:00,,0803.9,5.00,0.00,24.6,23.1,00.0,33.4,26.4,12.8,0000.0,0007.54,0002.45,0001.68
2023-02-22 01:07:00,,0803.9,5.01,0.00,24.6,23.1,00.0,33.4,26.5,12.8,0000.0,0007.48,0002.45,0001.67
2023-02-22 01:08:00,,0803.9,4.99,0.00,24.6,23.1,00.0,33.4,26.5,12.7,0000.0,0007.40,0002.40,0001.65
2023-02-22 01:09:00,,0803.9,5.00,0.00,24.6,23.1,00.0,33.4,26.5,12.8,0000.0,0006.89,0002.32,0001.64
2023-02-22 01:10:00,,0803.8,4.99,0.00,24.6,23.0,00.0,33.4,26.5,12.8,0000.0,0006.59,0002.26,0001.64
2023-02-22 01:11:00,,0803.9,5.00,0.00,24.6,23.0,00.0,33.4,26.5,12.8,0000.0,0006.73,0002.28,0001.61
2023-02-22 01:12:00,,0803.9,5.00,0.00,24.6,23.0,00.0,33.4,26.5,12.8,0000.0,0006.87,0002.27,0001.60
2023-02-22 01:13:00,,0803.9,5.00,0.00,24.6,23.0,00.0,33.4,26.5,12.8,0000.0,0006.86,0002.37,0001.60
2023-02-22 01:14:00,,0803.8,5.01,0.00,24.6,22.9,00.0,33.4,26.4,12.8,0000.0,0006.70,0002.41,0001.59
2023-02-22 01:15:00,,0803.9,5.00,0.00,24.6,22.9,00.0,33.4,26.4,12.8,0000.0,0006.61,0002.43,0001.58
2023-02-22 01:16:00,,0803.8,5.00,0.00,24.6,22.9,00.0,33.4,26.4,12.9,0000.0,0006.66,0002.44,0001.58
2023-02-22 01:17:00,,0803.9,5.01,0.00,24.6,22.9,00.0,33.4,26.4,12.9,0000.0,0006.56,0002.43,0001.57
2023-02-22 01:18:00,,0803.9,5.00,0.00,24.6,22.9,00.0,33.4,26.4,13.0,0000.0,0006.83,0002.48,0001.57
2023-02-22 01:19:00,,0803.9,5.00,0.00,24.6,22.9,00.0,33.4,26.4,13.0,0000.0,0007.06,0002.55,0001.59
2023-02-22 01:20:00,,0803.9,5.00,0.00,24.6,22.9,00.0,33.3,26.4,13.0,0000.0,0007.23,0002.61,0001.61
2023-02-22 01:21:00,,0803.9,5.00,0.00,24.6,22.9,00.0,33.3,26.4,13.0,0000.0,0007.30,0002.66,0001.63
2023-02-22 01:22:00,,0803.8,5.00,0.00,24.6,22.9,00.0,33.3,26.3,12.9,0000.0,0007.34,0002.70,0001.65
2023-02-22 01:23:00,,0803.9,5.00,0.00,24.5,22.9,00.0,33.3,26.4,13.0,0000.0,0006.26,0002.74,0001.66
2023-02-22 01:24:00,,0803.8,5.00,0.00,24.5,22.9,00.0,33.3,26.3,13.0,0000.0,0006.28,0002.74,0001.68
2023-02-22 01:25:00,,0803.9,5.00,0.00,24.5,23.0,00.0,33.3,26.4,13.1,0000.0,0007.04,0002.76,0001.72
2023-02-22 01:26:00,,0803.9,4.99,0.00,24.5,23.0,00.0,33.3,26.4,13.1,0000.0,0007.15,0002.77,0001.74
2023-02-22 01:27:00,,0803.9,5.01,0.00,24.5,22.9,00.0,33.3,26.4,13.1,0000.0,0007.43,0002.80,0001.73
2023-02-22 01:28:00,,0804.0,4.99,0.00,24.5,22.9,00.0,33.3,26.4,13.1,0000.0,0007.68,0002.89,0001.72
2023-02-22 01:29:00,,0803.9,5.00,0.00,24.5,22.9,00.0,33.3,26.4,13.1,0000.0,0008.38,0002.95,0001.71
2023-02-22 01:30:00,,0804.0,5.00,0.00,24.5,22.9,00.0,33.3,26.4,13.1,0000.0,0009.41,0002.91,0001.69
2023-02-22 01:31:00,,0803.9,5.00,0.00,24.5,22.9,00.0,33.3,26.3,13.2,0000.0,0009.51,0002.93,0001.66
2023-02-22 01:32:00,,0803.9,5.00,0.00,24.5,22.9,00.0,33.3,26.3,13.2,0000.0,0009.69,0002.87,0001.63
2023-02-22 01:33:00,,0803.9,5.00,0.00,24.5,22.9,00.0,33.3,26.3,13.2,0000.0,0010.00,0002.82,0001.60
2023-02-22 01:34:00,,0803.9,5.00,0.00,24.5,22.9,00.0,33.3,26.3,13.2,0000.0,0010.15,0002.77,0001.58
2023-02-22 01:35:00,,0803.9,5.00,0.00,24.5,22.9,00.0,33.3,26.3,13.3,0000.0,0010.23,0002.69,0001.55
2023-02-22 01:36:00,,0803.8,5.00,0.00,24.5,22.8,00.0,33.3,26.3,13.3,0000.0,0010.34,0002.64,0001.51
2023-02-22 01:37:00,,0803.9,5.00,0.00,24.5,22.8,00.0,33.3,26.3,13.3,0000.0,0011.12,0002.67,0001.48
2023-02-22 01:38:00,,0803.9,4.99,0.00,24.5,22.8,00.0,33.3,26.3,13.4,0000.0,0011.15,0002.74,0001.48
2023-02-22 01:39:00,,0803.9,4.99,0.00,24.5,22.8,00.0,33.3,26.3,13.4,0000.0,0011.26,0002.68,0001.48
2023-02-22 01:40:00,,0803.9,5.00,0.00,24.5,22.8,00.0,33.3,26.3,13.4,0000.0,0011.00,0002.62,0001.48
2023-02-22 01:41:00,,0804.0,4.98,0.00,24.5,22.8,00.0,33.3,26.3,13.5,0000.0,0010.12,0002.63,0001.48
2023-02-22 01:42:00,,0803.9,5.00,0.00,24.5,22.7,00.0,33.3,26.2,13.5,0000.0,0010.61,0002.64,0001.49
2023-02-22 01:43:00,,0804.0,4.99,0.00,24.4,22.7,00.0,33.3,26.2,13.6,0000.0,0011.00,0002.70,0001.49
2023-02-22 01:44:00,,0804.0,5.00,0.00,24.4,22.7,00.0,33.3,26.2,13.6,0000.0,0011.10,0002.74,0001.51
2023-02-22 01:45:00,,0803.9,5.00,0.00,24.4,22.7,00.0,33.2,26.2,13.7,0000.0,0011.25,0002.75,0001.51
2023-02-22 01:46:00,,0803.9,5.00,0.00,24.4,22.7,00.0,33.2,26.2,13.7,0000.0,0011.43,0002.76,0001.51
2023-02-22 01:47:00,,0804.0,5.00,0.00,24.4,22.7,00.0,33.2,26.2,13.7,0000.0,0010.79,0002.77,0001.52
2023-02-22 01:48:00,,0804.0,5.01,0.00,24.4,22.7,00.0,33.2,26.2,13.8,0000.0,0009.94,0002.78,0001.54
2023-02-22 01:49:00,,0803.9,5.01,0.00,24.4,22.7,00.0,33.2,26.2,13.8,0000.0,0010.25,0002.75,0001.54
2023-02-22 01:50:00,,0803.9,5.00,0.00,24.4,22.7,00.0,33.2,26.2,13.9,0000.0,0010.09,0002.69,0001.54
2023-02-22 01:51:00,,0804.0,5.00,0.00,24.4,22.7,00.0,33.2,26.1,13.9,0000.0,0010.22,0002.68,0001.54
2023-02-22 01:52:00,,0804.1,5.00,0.00,24.4,22.7,00.0,33.2,26.1,13.9,0000.0,0011.06,0002.68,0001.55
2023-02-22 01:53:00,,0804.1,5.00,0.00,24.4,22.7,00.0,33.2,26.1,13.9,0000.0,0010.63,0002.69,0001.55
2023-02-22 01:54:00,,0804.1,5.00,0.00,24.4,22.7,00.0,33.2,26.1,13.9,0000.0,0010.48,0002.67,0001.56
2023-02-22 01:55:00,,0804.1,5.00,0.00,24.3,22.7,00.0,33.2,26.1,14.0,0000.0,0010.40,0002.71,0001.54
2023-02-22 01:56:00,,0804.1,5.00,0.00,24.3,22.6,00.0,33.2,26.1,14.0,0000.0,0010.24,0002.76,0001.56
2023-02-22 01:57:00,,0804.1,5.00,0.00,24.3,22.6,00.0,33.2,26.1,14.0,0000.0,0010.02,0002.83,0001.57
2023-02-22 01:58:00,,0804.1,5.00,0.00,24.3,22.6,00.0,33.2,26.1,14.1,0000.0,0010.47,0002.89,0001.57
2023-02-22 01:59:00,,0804.1,5.00,0.00,24.3,22.6,00.0,33.2,26.1,14.1,0000.0,0010.82,0002.86,0001.55
